Weather History for KSOP - May, 2014

Change the Weather History Date:

Saturday, May 17, 2014

  Actual Average Record
Temperature  
Mean Temperature 58 °F -  
Max Temperature 71 °F 77 °F 89 °F (2013)
Min Temperature 44 °F 55 °F 39 °F (1997)
Degree Days  
Heating Degree Days 8    
Growing Degree Days 8 (Base 50)    
Moisture  
Dew Point 39 °F    
Average Humidity 47    
Maximum Humidity 76    
Minimum Humidity 28    
Precipitation  
Precipitation 0.00 in - - ()
Sea Level Pressure  
Sea Level Pressure 30.14 in    
Wind  
Wind Speed 1 mph (WNW)    
Max Wind Speed 8 mph    
Max Gust Speed -    
Visibility 10 miles    
Events      
Averages and records for this station are not official NWS values.
T = Trace of Precipitation, MM = Missing Value Source: NWS Daily Summary

Daily Weather History Graph

Daily Weather History Graph

Search for Another Location

Airport or City:

Trip Planner

Search our weather history database for the weather conditions in past years. The results will help you decide how hot, cold, wet, or windy it might be!

Date:

Astronomy

May. 17, 2014 Rise Set
Actual Time 6:12 AM EDT 8:16 PM EDT
Civil Twilight 5:43 AM EDT 8:44 PM EDT
Nautical Twilight 5:09 AM EDT 9:19 PM EDT
Astronomical Twilight 4:32 AM EDT 9:56 PM EDT
Moon 11:16 PM EDT (5/17) 8:52 AM EDT (5/17)
Length of Visible Light 15h 01m
Length of Day
14h 04m
Waning Gibbous, 89% of the Moon is Illuminated
May 17
Waning Gibbous
May 21
Last Quarter
May 28
New
Jun 5
First Quarter
Jun 13
Full

Hourly Weather History & Observations

Time (EDT) Temp. Dew Point Humidity Pressure Visibility Wind Dir Wind Speed Gust Speed Precip Events Conditions
12:15 AM 57.2 °F 39.2 °F 51% 30.08 in 10.0 mi NW 3.5 mph - N/A   Clear
12:35 AM 55.4 °F 39.2 °F 54% 30.09 in 10.0 mi NW 4.6 mph - N/A   Clear
12:55 AM 55.4 °F 39.2 °F 54% 30.08 in 10.0 mi Calm Calm - N/A   Clear
1:15 AM 55.4 °F 37.4 °F 51% 30.09 in 10.0 mi Calm Calm - N/A   Clear
1:35 AM 53.6 °F 37.4 °F 54% 30.09 in 10.0 mi Calm Calm - N/A   Clear
1:55 AM 53.6 °F 37.4 °F 54% 30.09 in 10.0 mi Calm Calm - N/A   Clear
2:15 AM 53.6 °F 37.4 °F 54% 30.09 in 10.0 mi Calm Calm - N/A   Clear
2:35 AM 51.8 °F 37.4 °F 58% 30.10 in 10.0 mi Calm Calm - N/A   Clear
2:55 AM 51.8 °F 35.6 °F 54% 30.09 in 10.0 mi Calm Calm - N/A   Clear
3:15 AM 51.8 °F 35.6 °F 54% 30.09 in 10.0 mi Calm Calm - N/A   Clear
3:35 AM 50.0 °F 35.6 °F 58% 30.09 in 10.0 mi Calm Calm - N/A   Clear
3:55 AM 48.2 °F 37.4 °F 66% 30.10 in 10.0 mi Calm Calm - N/A   Clear
4:15 AM 48.2 °F 37.4 °F 66% 30.11 in 10.0 mi Calm Calm - N/A   Clear
4:35 AM 46.4 °F 37.4 °F 71% 30.11 in 10.0 mi Calm Calm - N/A   Clear
4:55 AM 46.4 °F 37.4 °F 71% 30.12 in 10.0 mi Calm Calm - N/A   Clear
5:15 AM 46.4 °F 37.4 °F 71% 30.12 in 10.0 mi Calm Calm - N/A   Clear
5:35 AM 44.6 °F 37.4 °F 76% 30.13 in 10.0 mi Calm Calm - N/A   Clear
5:55 AM 46.4 °F 37.4 °F 71% 30.13 in 10.0 mi Calm Calm - N/A   Clear
6:15 AM 44.6 °F 37.4 °F 76% 30.14 in 10.0 mi Calm Calm - N/A   Clear
6:35 AM 44.6 °F 37.4 °F 76% 30.16 in 10.0 mi Calm Calm - N/A   Clear
6:55 AM 46.4 °F 37.4 °F 71% 30.17 in 10.0 mi Calm Calm - N/A   Clear
7:15 AM 48.2 °F 37.4 °F 66% 30.18 in 10.0 mi Calm Calm - N/A   Clear
7:35 AM 50.0 °F 39.2 °F 66% 30.17 in 10.0 mi Calm Calm - N/A   Clear
7:55 AM 53.6 °F 39.2 °F 58% 30.18 in 10.0 mi Calm Calm - N/A   Clear
8:15 AM 55.4 °F 39.2 °F 54% 30.18 in 10.0 mi Calm Calm - N/A   Clear
8:35 AM 57.2 °F 39.2 °F 51% 30.18 in 10.0 mi Calm Calm - N/A   Clear
8:55 AM 59.0 °F 39.2 °F 48% 30.18 in 10.0 mi Calm Calm - N/A   Clear
9:15 AM 60.8 °F 37.4 °F 42% 30.18 in 10.0 mi Calm Calm - N/A   Clear
9:35 AM 60.8 °F 35.6 °F 39% 30.19 in 10.0 mi WNW 4.6 mph - N/A   Partly Cloudy
9:55 AM 62.6 °F 37.4 °F 39% 30.18 in 10.0 mi Calm Calm - N/A   Partly Cloudy
10:15 AM 62.6 °F 35.6 °F 37% 30.19 in 10.0 mi Calm Calm - N/A   Clear
10:35 AM 64.4 °F 33.8 °F 32% 30.19 in 10.0 mi Calm Calm - N/A   Clear
10:55 AM 64.4 °F 33.8 °F 32% 30.19 in 10.0 mi NNW 5.8 mph - N/A   Clear
11:15 AM 64.4 °F 33.8 °F 32% 30.18 in 10.0 mi Calm Calm - N/A   Clear
11:35 AM 64.4 °F 35.6 °F 34% 30.19 in 10.0 mi Calm Calm - N/A   Clear
11:55 AM 66.2 °F 35.6 °F 32% 30.18 in 10.0 mi North - - N/A   Clear
12:15 PM 66.2 °F 35.6 °F 32% 30.18 in 10.0 mi Calm Calm - N/A   Clear
12:35 PM 68.0 °F 37.4 °F 33% 30.17 in 10.0 mi West 3.5 mph - N/A   Clear
12:55 PM 68.0 °F 37.4 °F 33% 30.16 in 10.0 mi West 4.6 mph - N/A   Scattered Clouds
1:15 PM 69.8 °F 35.6 °F 28% 30.17 in 10.0 mi West 5.8 mph - N/A   Mostly Cloudy
1:35 PM 69.8 °F 37.4 °F 31% 30.16 in 10.0 mi WNW 4.6 mph - N/A   Mostly Cloudy
1:55 PM 69.8 °F 37.4 °F 31% 30.15 in 10.0 mi NW 6.9 mph - N/A   Partly Cloudy
2:15 PM 69.8 °F 37.4 °F 31% 30.14 in 10.0 mi NNW 8.1 mph - N/A   Clear
2:35 PM 71.6 °F 37.4 °F 29% 30.14 in 10.0 mi Calm Calm - N/A   Clear
2:55 PM 71.6 °F 37.4 °F 29% 30.14 in 10.0 mi Calm Calm - N/A   Clear
3:15 PM 71.6 °F 37.4 °F 29% 30.14 in 10.0 mi North - - N/A   Clear
3:35 PM 71.6 °F 37.4 °F 29% 30.14 in 10.0 mi North - - N/A   Clear
3:55 PM 71.6 °F 37.4 °F 29% 30.14 in 10.0 mi North - - N/A   Partly Cloudy
4:15 PM 71.6 °F 37.4 °F 29% 30.13 in 10.0 mi North - - N/A   Scattered Clouds
4:35 PM 71.6 °F 37.4 °F 29% 30.13 in 10.0 mi North - - N/A   Scattered Clouds
4:55 PM 69.8 °F 39.2 °F 33% 30.13 in 10.0 mi North - - N/A   Partly Cloudy
5:15 PM 69.8 °F 39.2 °F 33% 30.12 in 10.0 mi North - - N/A   Clear
5:35 PM 69.8 °F 39.2 °F 33% 30.12 in 10.0 mi North - - N/A   Clear
5:55 PM 69.8 °F 39.2 °F 33% 30.13 in 10.0 mi Calm Calm - N/A   Clear
6:15 PM 69.8 °F 39.2 °F 33% 30.13 in 10.0 mi Calm Calm - N/A   Clear
6:35 PM 69.8 °F 41.0 °F 35% 30.13 in 10.0 mi Calm Calm - N/A   Clear
6:55 PM 69.8 °F 41.0 °F 35% 30.13 in 10.0 mi Calm Calm - N/A   Clear
7:15 PM 66.2 °F 41.0 °F 40% 30.13 in 10.0 mi Calm Calm - N/A   Scattered Clouds
7:35 PM 68.0 °F 42.8 °F 40% 30.13 in 10.0 mi Calm Calm - N/A   Overcast
7:55 PM 66.2 °F 42.8 °F 43% 30.13 in 10.0 mi Calm Calm - N/A   Scattered Clouds
8:15 PM 64.4 °F 42.8 °F 45% 30.14 in 10.0 mi Calm Calm - N/A   Mostly Cloudy
8:35 PM 60.8 °F 44.6 °F 55% 30.14 in 10.0 mi Calm Calm - N/A   Partly Cloudy
8:55 PM 60.8 °F 46.4 °F 59% 30.14 in 10.0 mi Calm Calm - N/A   Mostly Cloudy
9:15 PM 62.6 °F 46.4 °F 55% 30.15 in 10.0 mi Calm Calm - N/A   Overcast
9:35 PM 62.6 °F 48.2 °F 59% 30.15 in 10.0 mi Calm Calm - N/A   Overcast
9:55 PM 62.6 °F 48.2 °F 59% 30.16 in 10.0 mi Calm Calm - N/A   Overcast
10:15 PM 62.6 °F 46.4 °F 55% 30.16 in 10.0 mi Calm Calm - N/A   Overcast
10:35 PM 64.4 °F 44.6 °F 49% 30.17 in 10.0 mi Calm Calm - N/A   Overcast
10:55 PM 62.6 °F 44.6 °F 52% 30.17 in 10.0 mi Calm Calm - N/A   Overcast
11:15 PM 62.6 °F 44.6 °F 52% 30.17 in 10.0 mi Calm Calm - N/A   Scattered Clouds
11:35 PM 60.8 °F 46.4 °F 59% 30.17 in 10.0 mi Calm Calm - N/A   Clear
11:55 PM 59.0 °F 44.6 °F 59% 30.17 in 10.0 mi Calm Calm - N/A   Clear